Satellite: MET-3/5
Catalog number: 21655
Epoch time:      10133.69038660
Element set:     810
Inclination:      082.5547 deg
RA of node:       333.0131 deg
Eccentricity:    0.0014755
Arg of perigee:   076.5733 deg
Mean anomaly:     283.7053 deg
Mean motion:   13.17020843 rev/day
Decay rate:        5.1e-07 rev/day^2
Epoch rev:           90113
Checksum:              268

Satellite: MET-2/21
Catalog number: 22782
Epoch time:      10132.85793405
Element set:     773
Inclination:      082.5449 deg
RA of node:       280.4689 deg
Eccentricity:    0.0023352
Arg of perigee:   138.8167 deg
Mean anomaly:     221.4767 deg
Mean motion:   13.83644555 rev/day
Decay rate:        5.0e-07 rev/day^2
Epoch rev:           84319
Checksum:              323

Satellite: OKEAN-4
Catalog number: 23317
Epoch time:      10133.70407662
Element set:     230
Inclination:      082.5421 deg
RA of node:       026.0466 deg
Eccentricity:    0.0022404
Arg of perigee:   000.4322 deg
Mean anomaly:     359.6897 deg
Mean motion:   14.82814530 rev/day
Decay rate:       2.11e-06 rev/day^2
Epoch rev:           84134
Checksum:              251

Satellite: NOAA-14
Catalog number: 23455
Epoch time:      10133.32246038
Element set:      53
Inclination:      098.8782 deg
RA of node:       214.3060 deg
Eccentricity:    0.0009232
Arg of perigee:   340.5536 deg
Mean anomaly:     019.5296 deg
Mean motion:   14.13785745 rev/day
Decay rate:        7.0e-08 rev/day^2
Epoch rev:           79257
Checksum:              294

Satellite: NOAA-15
Catalog number: 25338
Epoch time:      10133.18253747
Element set:     373
Inclination:      098.6160 deg
RA of node:       120.7391 deg
Eccentricity:    0.0010716
Arg of perigee:   171.1989 deg
Mean anomaly:     188.9363 deg
Mean motion:   14.24824740 rev/day
Decay rate:        1.9e-07 rev/day^2
Epoch rev:           62376
Checksum:              308

Satellite: RESURS
Catalog number: 25394
Epoch time:      10132.65833219
Element set:    0503
Inclination:      098.3067 deg
RA of node:       152.6696 deg
Eccentricity:    0.0001421
Arg of perigee:   009.5125 deg
Mean anomaly:     350.6080 deg
Mean motion:   14.24200566 rev/day
Decay rate:       -1.0e-08 rev/day^2
Epoch rev:           61529
Checksum:              261

Satellite: FENGYUN1
Catalog number: 25730
Epoch time:      10133.63221950
Element set:      41
Inclination:      098.7853 deg
RA of node:       099.4882 deg
Eccentricity:    0.0024602
Arg of perigee:   008.6982 deg
Mean anomaly:     351.4601 deg
Mean motion:   14.08223216 rev/day
Decay rate:      -2.11e-06 rev/day^2
Epoch rev:           56682
Checksum:              276

Satellite: OKEAN-0
Catalog number: 25860
Epoch time:      10132.76849906
Element set:     990
Inclination:      097.8292 deg
RA of node:       106.6763 deg
Eccentricity:    0.0001043
Arg of perigee:   108.8930 deg
Mean anomaly:     251.2387 deg
Mean motion:   14.73638481 rev/day
Decay rate:        9.2e-07 rev/day^2
Epoch rev:           58168
Checksum:              321

Satellite: NOAA-16
Catalog number: 26536
Epoch time:      10133.16427618
Element set:     850
Inclination:      099.1711 deg
RA of node:       149.8058 deg
Eccentricity:    0.0011426
Arg of perigee:   077.4257 deg
Mean anomaly:     282.8212 deg
Mean motion:   14.12559366 rev/day
Decay rate:       3.54e-06 rev/day^2
Epoch rev:           49688
Checksum:              318

Satellite: NOAA-17
Catalog number: 27453
Epoch time:      10133.42980160
Element set:     854
Inclination:      098.4336 deg
RA of node:       185.2677 deg
Eccentricity:    0.0010851
Arg of perigee:   236.3000 deg
Mean anomaly:     123.7141 deg
Mean motion:   14.24156829 rev/day
Decay rate:        4.3e-07 rev/day^2
Epoch rev:           40975
Checksum:              286

Satellite: NOAA-18
Catalog number: 28654
Epoch time:      10133.42094271
Element set:     338
Inclination:      098.9475 deg
RA of node:       079.7884 deg
Eccentricity:    0.0014818
Arg of perigee:   148.1756 deg
Mean anomaly:     212.0313 deg
Mean motion:   14.11353388 rev/day
Decay rate:       -1.8e-07 rev/day^2
Epoch rev:           25653
Checksum:              315

Satellite: NOAA-19
Catalog number: 33591
Epoch time:      10133.47230597
Element set:     536
Inclination:      098.7864 deg
RA of node:       076.3341 deg
Eccentricity:    0.0014711
Arg of perigee:   031.2647 deg
Mean anomaly:     328.9399 deg
Mean motion:   14.11051711 rev/day
Decay rate:       2.52e-06 rev/day^2
Epoch rev:            6501
Checksum:              289

/EX
SB KEPS @ AMSAT  $ORB10133.M
Orbital Elements  10133.MISC

HR AMSAT ORBITAL ELEMENTS FOR MANNED AND MISCELLANEOUS SATELLITES
FROM WA5QGD FORT WORTH,TX May 13, 2010
Send Subscribe/unsubscribe to KEPS at http://www.amsat.org/mailman/listinfo/kep
BID: ORB10133.M
TO ALL RADIO AMATEURS BT

Satellite: HUBBLE
Catalog number: 20580
Epoch time:      10133.13907466
Element set:     564
Inclination:      028.4674 deg
RA of node:       108.6573 deg
Eccentricity:    0.0003720
Arg of perigee:   187.3225 deg
Mean anomaly:     172.7302 deg
Mean motion:   15.00970283 rev/day
Decay rate:       4.59e-06 rev/day^2
Epoch rev:           89948
Checksum:              297

